Location: Helsinki
(60.1699°N, 24.9384°E)
Time: 21:28:42
(UTC+03:00)

A-11 Canister half - Pass Details

Date: 04 June 2024
Orbit: 1525 x 1683 km, 47.3° (Epoch: 14 June)

Event Time Altitude Azimuth Distance (km) Brightness Sun altitude
Rises 01:38:53 0° 277° (W) 4,721 11.6 -7.3°
Reaches altitude 10° 01:43:07 10° 260° (W) 3,758 10.9 -7.2°
Maximum altitude 01:48:58 18° 222° (SW) 3,173 10.2 -7.1°
Drops below altitude 10° 01:54:54 10° 183° (S) 3,828 10.4 -7.0°
Enters shadow 01:56:13 - 177° (S) 4,100 10.6 -7.0°
